When you browse on this site, cookies collect data to enhance your experience and personalize the content and advertising you see.
Visit our Privacy Policy to learn more. By continuing to use the site, you agree to this use of cookies and data.
  • In Latvia
  • List of Countries
  • For 7 days
  • Water Temperature
  • Satellite Maps
  • Weather Map
  • Weather Widgets
  • user-avatar
    Login

    Hourly Weather Solden

    Today, 27 May, Monday

    Time Temperature Precipitation Wind Pressure Humidity
    00:00 +2°C° 0 mm 1 mps 580 mmHg 85%
    01:00 +1°C° 0 mm 1 mps 580 mmHg 85%
    02:00 +1°C° 0 mm 1 mps 579 mmHg 84%
    03:00 +2°C° 0 mm 1 mps 579 mmHg 84%
    04:00 +2°C° 0 mm 1 mps 579 mmHg 84%
    05:00 +3°C° 0.1 mm 1 mps 580 mmHg 80%
    06:00 +5°C° 0.1 mm 1 mps 580 mmHg 76%
    07:00 +6°C° 0.1 mm 1 mps 581 mmHg 71%
    08:00 +8°C° 0.1 mm 1 mps 582 mmHg 67%
    09:00 +9°C° 0.1 mm 1 mps 582 mmHg 62%
    10:00 +10°C° 0.1 mm 1 mps 583 mmHg 57%
    11:00 +11°C° 0.1 mm 1 mps 583 mmHg 56%
    12:00 +11°C° 0.1 mm 1 mps 583 mmHg 56%
    13:00 +12°C° 0.1 mm 2 mps 583 mmHg 55%
    14:00 +10°C° 0.2 mm 2 mps 582 mmHg 58%
    15:00 +9°C° 0.2 mm 2 mps 582 mmHg 62%
    16:00 +9°C° 0.2 mm 2 mps 581 mmHg 65%
    17:00 +8°C° 0.5 mm 2 mps 580 mmHg 73%
    18:00 +7°C° 0.5 mm 1 mps 580 mmHg 80%
    19:00 +6°C° 0.5 mm 1 mps 579 mmHg 88%
    20:00 +5°C° 1.6 mm 1 mps 578 mmHg 91%
    21:00 +5°C° 1.6 mm 1 mps 578 mmHg 94%
    22:00 +3°C° 1.6 mm 0 mps 578 mmHg 97%
    23:00 +3°C° 2.3 mm 0 mps 577 mmHg 97%

    Tomorrow, 28 May, Tuesday

    Time Temperature Precipitation Wind Pressure Humidity
    00:00 +3°C° 2.3 mm 0 mps 577 mmHg 97%
    01:00 +2°C° 2.3 mm 0 mps 577 mmHg 97%
    02:00 +2°C° 1.1 mm 0 mps 577 mmHg 96%
    03:00 +2°C° 1.1 mm 0 mps 576 mmHg 96%
    04:00 +3°C° 1.1 mm 1 mps 576 mmHg 96%
    05:00 +4°C° 0.7 mm 1 mps 576 mmHg 95%
    06:00 +4°C° 0.7 mm 1 mps 576 mmHg 93%
    07:00 +5°C° 0.7 mm 1 mps 577 mmHg 92%
    08:00 +5°C° 1 mm 1 mps 577 mmHg 88%
    09:00 +6°C° 1 mm 1 mps 578 mmHg 83%
    10:00 +7°C° 1 mm 1 mps 578 mmHg 78%
    11:00 +7°C° 1.3 mm 1 mps 578 mmHg 79%
    12:00 +7°C° 1.3 mm 1 mps 578 mmHg 80%
    13:00 +7°C° 1.3 mm 1 mps 578 mmHg 82%
    14:00 +6°C° 1.6 mm 1 mps 578 mmHg 84%
    15:00 +4°C° 1.6 mm 2 mps 578 mmHg 87%
    16:00 +4°C° 1.6 mm 2 mps 577 mmHg 90%
    17:00 +3°C° 0.7 mm 2 mps 577 mmHg 90%
    18:00 +2°C° 0.7 mm 2 mps 577 mmHg 91%
    19:00 +2°C° 0.7 mm 2 mps 577 mmHg 91%
    20:00 0°C° 0.3 mm 3 mps 577 mmHg 91%
    21:00 0°C° 0.3 mm 3 mps 577 mmHg 91%
    22:00 -1°C° 0.3 mm 3 mps 577 mmHg 90%
    23:00 -2°C° 0.5 mm 3 mps 577 mmHg 90%

    Day after tomorrow, 29 May, Wednesday

    Time Temperature Precipitation Wind Pressure Humidity
    00:00 -2°C° 0.5 mm 3 mps 577 mmHg 90%
    01:00 -2°C° 0.5 mm 3 mps 577 mmHg 90%
    02:00 -2°C° 0.7 mm 3 mps 577 mmHg 91%
    03:00 -4°C° 0.7 mm 3 mps 577 mmHg 91%
    04:00 -4°C° 0.7 mm 3 mps 578 mmHg 92%
    05:00 -2°C° 0.5 mm 3 mps 578 mmHg 91%
    06:00 -2°C° 0.5 mm 3 mps 578 mmHg 91%
    07:00 -2°C° 0.5 mm 3 mps 579 mmHg 90%
    08:00 -1°C° 0.3 mm 3 mps 580 mmHg 86%
    09:00 0°C° 0.3 mm 3 mps 580 mmHg 81%
    10:00 +1°C° 0.3 mm 3 mps 581 mmHg 76%
    11:00 +2°C° 0.2 mm 3 mps 582 mmHg 72%
    12:00 +3°C° 0.2 mm 3 mps 582 mmHg 67%
    13:00 +4°C° 0.2 mm 3 mps 583 mmHg 63%
    14:00 +5°C° 0.1 mm 3 mps 583 mmHg 62%
    15:00 +5°C° 0.1 mm 3 mps 583 mmHg 61%
    16:00 +6°C° 0.1 mm 2 mps 584 mmHg 61%
    17:00 +5°C° 0.1 mm 2 mps 583 mmHg 65%
    18:00 +4°C° 0.1 mm 2 mps 583 mmHg 69%
    19:00 +3°C° 0.1 mm 2 mps 583 mmHg 74%
    20:00 +2°C° 0 mm 2 mps 583 mmHg 77%
    21:00 +1°C° 0 mm 2 mps 583 mmHg 80%
    22:00 -2°C° 0 mm 2 mps 583 mmHg 84%
    23:00 -2°C° 0 mm 2 mps 583 mmHg 85%

    30 May, Thursday

    Time Temperature Precipitation Wind Pressure Humidity
    00:00 -2°C° 0 mm 2 mps 582 mmHg 85%
    01:00 -3°C° 0 mm 2 mps 582 mmHg 86%
    02:00 -3°C° 0 mm 2 mps 582 mmHg 86%
    03:00 -3°C° 0 mm 2 mps 582 mmHg 85%
    04:00 -5°C° 0 mm 3 mps 582 mmHg 85%
    05:00 -2°C° 0 mm 2 mps 583 mmHg 80%
    06:00 +1°C° 0 mm 2 mps 584 mmHg 74%
    07:00 +2°C° 0 mm 2 mps 585 mmHg 69%
    08:00 +4°C° 0 mm 2 mps 586 mmHg 61%
    09:00 +6°C° 0 mm 2 mps 587 mmHg 54%
    10:00 +8°C° 0 mm 2 mps 588 mmHg 46%
    11:00 +10°C° 0 mm 1 mps 588 mmHg 47%
    12:00 +11°C° 0 mm 1 mps 589 mmHg 47%
    13:00 +12°C° 0 mm 1 mps 589 mmHg 47%
    14:00 +11°C° 0.3 mm 1 mps 589 mmHg 50%
    15:00 +11°C° 0.3 mm 1 mps 589 mmHg 52%
    16:00 +11°C° 0.3 mm 1 mps 588 mmHg 55%
    17:00 +9°C° 0.2 mm 1 mps 588 mmHg 62%
    18:00 +8°C° 0.2 mm 1 mps 587 mmHg 69%
    19:00 +7°C° 0.2 mm 1 mps 587 mmHg 75%
    20:00 +5°C° 0.1 mm 2 mps 587 mmHg 78%
    21:00 +3°C° 0.1 mm 2 mps 586 mmHg 81%
    22:00 +2°C° 0.1 mm 2 mps 586 mmHg 84%
    23:00 +2°C° 0 mm 2 mps 586 mmHg 85%

    31 May, Friday

    Time Temperature Precipitation Wind Pressure Humidity
    00:00 +2°C° 0 mm 2 mps 586 mmHg 85%
    01:00 +1°C° 0 mm 2 mps 585 mmHg 86%
    02:00 +1°C° 0 mm 2 mps 585 mmHg 85%
    03:00 +1°C° 0 mm 2 mps 585 mmHg 85%
    04:00 +2°C° 0 mm 2 mps 585 mmHg 84%
    05:00 +3°C° 0.1 mm 2 mps 586 mmHg 80%
    06:00 +5°C° 0.1 mm 1 mps 586 mmHg 77%
    07:00 +6°C° 0.1 mm 1 mps 587 mmHg 74%
    08:00 +7°C° 0.3 mm 1 mps 587 mmHg 71%
    09:00 +8°C° 0.3 mm 1 mps 587 mmHg 69%
    10:00 +9°C° 0.3 mm 1 mps 588 mmHg 66%
    11:00 +9°C° 0.3 mm 2 mps 588 mmHg 63%
    12:00 +10°C° 0.3 mm 2 mps 589 mmHg 61%
    13:00 +10°C° 0.3 mm 2 mps 589 mmHg 58%
    14:00 +10°C° 0.5 mm 2 mps 589 mmHg 61%
    15:00 +10°C° 0.5 mm 2 mps 588 mmHg 63%
    16:00 +9°C° 0.5 mm 3 mps 588 mmHg 66%
    17:00 +8°C° 0.3 mm 2 mps 588 mmHg 70%
    18:00 +7°C° 0.3 mm 2 mps 587 mmHg 75%
    19:00 +6°C° 0.3 mm 2 mps 587 mmHg 79%
    20:00 +4°C° 0 mm 2 mps 586 mmHg 82%
    21:00 +3°C° 0 mm 2 mps 586 mmHg 85%
    22:00 0°C° 0 mm 3 mps 585 mmHg 88%
    23:00 0°C° 0 mm 3 mps 585 mmHg 88%

    1 June, Saturday

    Time Temperature Precipitation Wind Pressure Humidity
    00:00 -1°C° 0 mm 3 mps 585 mmHg 88%
    01:00 -1°C° 0 mm 3 mps 585 mmHg 87%
    02:00 -2°C° 0 mm 3 mps 585 mmHg 86%
    03:00 -2°C° 0 mm 3 mps 584 mmHg 84%
    04:00 -2°C° 0 mm 3 mps 584 mmHg 83%
    05:00 0°C° 0 mm 3 mps 585 mmHg 77%
    06:00 +1°C° 0 mm 3 mps 586 mmHg 72%
    07:00 +4°C° 0 mm 2 mps 587 mmHg 67%
    08:00 +6°C° 0 mm 2 mps 588 mmHg 61%
    09:00 +8°C° 0 mm 2 mps 589 mmHg 54%
    10:00 +9°C° 0 mm 2 mps 590 mmHg 48%
    11:00 +10°C° 0 mm 2 mps 590 mmHg 44%
    12:00 +11°C° 0 mm 3 mps 590 mmHg 40%
    13:00 +12°C° 0 mm 3 mps 590 mmHg 37%
    14:00 +11°C° 0 mm 3 mps 590 mmHg 37%
    15:00 +11°C° 0 mm 3 mps 590 mmHg 37%
    16:00 +11°C° 0 mm 3 mps 589 mmHg 37%
    17:00 +9°C° 0 mm 3 mps 589 mmHg 42%
    18:00 +8°C° 0 mm 2 mps 588 mmHg 48%
    19:00 +6°C° 0 mm 2 mps 588 mmHg 53%
    20:00 +4°C° 0 mm 2 mps 587 mmHg 57%
    21:00 +2°C° 0 mm 2 mps 587 mmHg 62%
    22:00 -1°C° 0 mm 2 mps 586 mmHg 66%
    23:00 -1°C° 0 mm 2 mps 586 mmHg 65%
    Show more